Regional Weather Roundup
Issued by NWS New Orleans/Baton Rouge, LA

Home | Current Version | Previous Version | Graphics & Text | Print | Product List | Glossary On
Versions: 1 2 3 4 5 6 7 8 9 10 11 12 13 14 15 16 17 18 19 20 21 22 23 24 25 26 27 28 29 30 31 32 33 34 35 36 37 38 39 40 41 42 43 44 45 46 47 48 49 50
865
ASUS44 KLIX 270011
RWRLIX
NEW ORLEANS REGIONAL WEATHER ROUNDUP
NATIONAL WEATHER SERVICE NEW ORLEANS LA
700 PM CDT THU MAR 26 2015

NOTE: "FAIR" INDICATES FEW OR NO CLOUDS BELOW 12,000 FEET WITH NO
      SIGNIFICANT WEATHER AND/OR OBSTRUCTIONS TO VISIBILITY.
      SKY/WX - SKY CONDITION AND SIGNIFICANT WEATHER.
      TMP - AIR TEMPERATURE.     DP    - DEWPOINT TEMPERATURE.
      RH  - RELATIVE HUMIDITY.   PRES  - PRESSURE.
      HI  - HEAT INDEX.          WCI   - WIND CHILL INDEX.

*  THESE STATIONS ARE NOT NWS OR FAA STATIONS AND ARE NOT UNDER
   NWS QUALITY CONTROL.

LAZ038-040-048-061>063-065>067-069-270100-
SOUTHEAST LOUISIANA

CITY           SKY/WX    TMP DP  RH WIND       PRES   REMARKS
N.O. AUDUBON     N/A     64  64 100 MISG        N/A
6HR MIN TEMP:  61; 6HR MAX TEMP:  66; 6HR PCP:  0.10;

N.O. INTL ARPT CLOUDY    64  60  87 W3        29.87R
6HR MIN TEMP:  63; 6HR MAX TEMP:  65; 6HR PCP:  0.10;

N.O. LAKEFRONT CLOUDY    67  61  81 W7        29.87R
6HR MIN TEMP:  65; 6HR MAX TEMP:  70; 6HR PCP:  0.06;

SLIDELL        CLOUDY    65  62  90 N3        29.85R
6HR MIN TEMP:  65; 6HR MAX TEMP:  70; 6HR PCP:  0.02;

BATON ROUGE    LGT RAIN  66  64  93 W5        29.85S
6HR MIN TEMP:  66; 6HR MAX TEMP:  72; 6HR PCP:  0.02;

BOOTHVILLE     CLOUDY    64  62  93 S16       29.86R
6HR MIN TEMP:  63; 6HR MAX TEMP:  69; 6HR PCP:  0.32;

BELLE CHASSE   CLOUDY    64  61  90 CALM      29.86R FOG
6HR MIN TEMP:  63; 6HR MAX TEMP:  66;

BOGALUSA*        N/A     68  60  75 SW7       29.85S
6HR MIN TEMP:  68; 6HR MAX TEMP:  74;

GALLIANO*      CLOUDY    57  57  99 W3        29.88R
6HR MIN TEMP:  57; 6HR MAX TEMP:  65; 6HR PCP:  0.33;

NEW ROADS*     CLOUDY    65  62  89 NW15G21   29.88R
6HR MIN TEMP:  65; 6HR MAX TEMP:  74; 6HR PCP:  0.62;

GONZALES*      CLOUDY    66  66 100 W5        29.87R
6HR MIN TEMP:  65; 6HR MAX TEMP:  67; 6HR PCP:  0.01;

HAMMOND*       CLOUDY    68  61  77 W5        29.88R
HOUMA*         MOCLDY    64  64 100 W3        29.87R
PORT FOURCHON* CLEAR     68  63  83 S14       29.89R

$$

MSZ070-080>082-270100-
SOUTHERN MISSISSIPPI

CITY           SKY/WX    TMP DP  RH WIND       PRES   REMARKS
MCCOMB         CLOUDY    66  64  93 NW8       29.84R
6HR MIN TEMP:  66; 6HR MAX TEMP:  74; 6HR PCP:  0.29;

GULFPORT       CLOUDY    66  62  87 CALM      29.85R
6HR MIN TEMP:  66; 6HR MAX TEMP:  70; 6HR PCP: TRACE;

BILOXI         CLOUDY    66  64  94 S3        29.84R
6HR MIN TEMP:  65; 6HR MAX TEMP:  68; 6HR PCP:  0.02;

PASCAGOULA     CLOUDY    65  63  93 SW3       29.87R
6HR MIN TEMP:  65; 6HR MAX TEMP:  68; 6HR PCP:  0.02;

STENNIS ARPT*  PTCLDY    64  59  82 S3        29.85R

$$

COASTAL OBSERVATIONS
LAKE AND NEARSHORE STATIONS

STATION/POSITION TIME  TEMP    WIND        PRES    WAVE
                       AIR SEA DIR/SP/G            HT/PER
                 (UTC) (F)     (DEG/KT/KT) (MB)    (FT/S)
PASCAGOULA       2300   68     240/ 14/ 17 1009.9
WAVELAND YACHT   2300   65 70  230/  2/  3 1009.7
GRAND ISLE       2300   67 71  130/ 12/ 18 1006.6
SOUTHWEST PASS   2300   60 51  140/ 12/ 14 1011.3
NEW CANAL        2300   64     200/  4/  5 1010.5
SHELL BEACH      2300   66 71  290/ 11/ 13 1010.7

OFFSHORE STATIONS

STATION/POSITION TIME  TEMP    WIND        PRES    WAVE
                       AIR SEA DIR/SP/G            HT/PER
                 (UTC) (F)     (DEG/KT/KT) (MB)    (FT/S)
64 S DAUPHIN ISL 2350   68 73  210/ 16/ 19 1012.2    2/ 6

$$




USA.gov is the U.S. government's official web portal to all federal, state and local government web resources and services.